Погода в Далыре

Россия / Республика Саха (Якутия)     63°52′06″N   120°15′04″E
темп.,
°C
ветер,
м/с
пор.,
м/с
влажн.,
%
обл.,
%
осадки,
мм/ч
давл.,
гПа
погр.,
м
25 февраля, чт
чт2500:00−30всв2398100 0.0 1034120
03:00−32всв229899 0.1 103568
06:00−33всв239899 0.0 103479
09:00−33всв2298100 0.1 103564
12:00−30всв2397100 0.0 1035229
15:00−27всв1293100 0.1 1034363
18:00−30св1298100 0.0 103619
21:00−32св1299100 0.1 103619
26 февраля, пт
пт2600:00−33всв129899 0.0 103619
03:00−34всв119998 0.0 103719
06:00−34в1299100 0.0 103619
09:00−35в229997 0.0 103520
12:00−30в239418 0.0 1035247
15:00−28в259447 0.0 1032309
18:00−31всв259768 0.0 1031113
21:00−32в389766 0.0 1032190
27 февраля, сб
сб2700:00−31в3797100 0.0 1030189
03:00−33всв259890 0.0 1029100
06:00−33в389857 0.0 1029150
09:00−33всв249974 0.0 1029104
12:00−29всв2396100 0.0 1028231
15:00−27св2495100 0.0 1027293
18:00−28ссв1297100 0.0 102719
21:00−28с1298100 0.1 102864
28 февраля, вс
вс2800:00−28ссз1399100 0.3 1028122
03:00−29сз2499100 0.6 1027169
06:00−29зсз2498100 0.1 1028146
09:00−29зсз3596100 0.3 1028302
12:00−27зсз3694100 0.1 1029416
15:00−25з3691100 0.1 1029492
18:00−26з3793100 0.0 1030392
21:00−28з3895100 0.0 1031279
1 марта, пн
пн100:00−30з259799 0.0 1031116
03:00−32з239698 0.0 103277
06:00−35з239661 0.0 103273
09:00−35з279675 0.0 1033135
12:00−31з359383 0.0 1032304
15:00−28з359289 0.0 1032391
18:00−30з239695 0.0 103257
21:00−33зсз239781 0.0 103227